Location: Gajan
(43.0218°N, 1.1244°E)
Time: 03:47:08
(UTC+00:00)

Cosmos 2219 Rocket - Pass Details

Date: 22 April 2021
Orbit: 826 x 848 km, 71.0° (Epoch: 15 May)

Event Time Altitude Azimuth Distance (km) Brightness Sun altitude
Rises 19:45:54 0° 330° (NNW) 3,420 6.5 -10.8°
Reaches altitude 10° 19:48:26 10° 324° (NW) 2,480 5.8 -11.2°
Maximum altitude 19:53:51 47° 253° (WSW) 1,115 3.2 -12.1°
Drops below altitude 10° 19:59:14 10° 181° (S) 2,458 4.3 -12.9°
Enters shadow 20:01:33 - 175° (S) 3,317 4.9 -13.3°
